Regional Weather Roundup
Issued by NWS

Home | Current Version | Previous Version | Graphics & Text | Print | Product List | Glossary On
Versions: 1 2 3 4 5 6 7 8 9 10 11 12 13 14 15 16 17 18 19 20 21 22 23 24 25 26 27 28 29 30 31 32 33 34 35 36 37 38 39 40 41 42 43 44 45 46 47 48 49 50
000
ASUS43 KMKX 190700
RWRWI

WISCONSIN REGIONAL WEATHER ROUNDUP
NATIONAL WEATHER SERVICE MILWAUKEE/SULLIVAN WI
200 AM CDT FRI SEP 19 2014

NOTE: "FAIR" INDICATES FEW OR NO CLOUDS BELOW 12,000 FEET WITH NO
SIGNIFICANT WEATHER AND/OR OBSTRUCTIONS TO VISIBILITY.

WIZ001-002-006>008-014>016-023>028-190800-
NORTHWEST WISCONSIN

CITY           SKY/WX    TMP DP  RH WIND       PRES   REMARKS
SUPERIOR ARPT  MOCLDY    46  46  98 E5        29.97F
ASHLAND        CLEAR     52  50  93 S9        30.01F
HAYWARD        CLEAR     53  51  93 S6        30.03S
SIREN          PTCLDY    55  53  92 SE7       30.00S
RICE LAKE      CLEAR     52  50  93 SE7       30.05F FOG
LADYSMITH      PTCLDY    52  50  92 SE6       30.08S
EAU CLAIRE     NOT AVBL
MENOMONIE      MOSUNNY   53  52  97 SE6       30.05S FOG
NEW RICHMOND   PTCLDY    56  55  96 S7        30.02S
OSCEOLA        PTCLDY    57  57  99 SE8       30.02F
$$

WIZ003>005-009-010-017-018-190800-
NORTH CENTRAL WISCONSIN

CITY           SKY/WX    TMP DP  RH WIND       PRES   REMARKS
WOODRUFF       CLOUDY    52  50  93 S10       30.10R FOG
RHINELANDER    CLOUDY    47  46  97 S5        30.12R FOG
EAGLE RIVER    CLOUDY    47  47 100 S3        30.10R FOG
LAND O LAKES   CLOUDY    48  47  97 S5        30.11R FOG
PHILLIPS       MOCLDY    50  48  95 S10       30.08R
TOMAHAWK       CLOUDY    46  46  97 CALM      30.11S FOG
MEDFORD        PTCLDY    48  47  97 SE8       30.10R FOG
MERRILL        MOCLDY    48  48 100 CALM      30.11S FOG
$$

WIZ029-030-035-036-043>047-190800-
CENTRAL WISCONSIN

CITY           SKY/WX    TMP DP  RH WIND       PRES   REMARKS
WAUSAU         CLOUDY    50  50 100 S6        30.11S FOG
MOSINEE        CLOUDY    46  46 100 SE6       30.13R FOG
MARSHFIELD     PTCLDY    49  48  97 S3        30.11R FOG
STEVENS POINT  CLEAR     47  47  99 CALM      30.13R FOG
WAUPACA        CLEAR     49  48  95 SE3       30.14S FOG
WAUTOMA        FOG       46  45  93 CALM      30.14S VSB<1/4
WISC RAPIDS    PTCLDY    50  49  96 S3        30.13R FOG
CAMP DOUGLAS   CLEAR     47  47 100 SE5       30.11S
$$

WIZ011>013-019>022-031-037>040-048>050-190800-
NORTHEAST WISCONSIN

CITY           SKY/WX    TMP DP  RH WIND       PRES   REMARKS
ANTIGO         FOG       46  46 100 SE8       30.13S VSB 1/2
STURGEON BAY   CLEAR     48  45  87 S7        30.16F
GREEN BAY      CLEAR     45  44  97 SE3       30.15F
MANITOWOC      NOT AVBL
APPLETON       CLEAR     48  46  93 SE6       30.15F
CLINTONVILLE   CLEAR     45  45 100 CALM      30.14S
OSHKOSH        CLEAR     47  46  97 CALM      30.14F
$$

WIZ032>034-041-042-053>061-190800-
SOUTHWEST WISCONSIN

CITY           SKY/WX    TMP DP  RH WIND       PRES   REMARKS
LA CROSSE      CLEAR     59  53  80 S13       30.08S
SPARTA         CLEAR     55  53  91 CALM      30.10S
VIROQUA        FAIR      54  54 100 S7        30.10S
BOSCOBEL       CLEAR     54  51  90 CALM      30.12R
PRAIRIE DU CHI CLEAR     56  51  83 CALM      30.10R
PLATTEVILLE    FAIR      53  52  96 CALM      30.12F
$$

WIZ056-057-062-063-064-067-068-190800-
SOUTH CENTRAL WISCONSIN

CITY           SKY/WX    TMP DP  RH WIND       PRES   REMARKS
BARABOO/DELLS  CLEAR     51  49  95 SE3       30.12S FOG
LONE ROCK      NOT AVBL
WATERTOWN      FOG       50  50 100 SE6       30.15F VSB 1/4
MADISON        CLOUDY    51  49  92 SE8       30.14F FOG
MIDDLETON      PTSUNNY   52  52  99 SE6       30.14F
MONROE         FOG       50  50 100 E5        30.14F VSB 1/4
JANESVILLE     CLEAR     50  46  87 E3        30.15F FOG
$$

WIZ051-052-058>065-066-070>072-190800-
SOUTHEAST WISCONSIN

CITY           SKY/WX    TMP DP  RH WIND       PRES   REMARKS
MILWAUKEE      MOCLDY    52  49  89 CALM      30.17F
WAUKESHA         N/A     46  46 100 CALM      30.18F FOG
MILWAUKEE/TIMM CLEAR     50  48  93 CALM      30.18F
RACINE         FOG       51  50  96 CALM      30.18F VSB 3/4
BURLINGTON     CLOUDY    46  46 100 CALM      30.17F FOG
KENOSHA        FOG       49  49 100 E5        30.17F VSB<1/4
FOND DU LAC    CLEAR     48  45  89 S6        30.14F
SHEBOYGAN      CLEAR     40  40 100 CALM      30.17S
WEST BEND      FOG       45  45 100 CALM      30.17F VSB 1/2
JUNEAU         FOG       49  49  99 SE10      30.16F VSB<1/4
$$

LSZ147-162-190800-
LAKE SUPERIOR

STATION/POSITION TIME  TEMP    WIND        PRES    WAVE
                       AIR SEA DIR/SP/G            HT/PER
                 (UTC) (F)     (DEG/KT/KT) (MB)    (FT/S)
W MID LAKE BUOY  0550   48 47  150/  6/  8 1017.1S   1/ 4
DEVILS ISLAND    0600   50      40/  2/  3 1016.5F
PORT WING        0600   44     140/  1/  4 1015.9
SAXON HARBOR     0600   55     190/  6/ 15 1016.6S
$$

LMZ867-665-643>646-190800-
LAKE MICHIGAN

STATION/POSITION TIME  TEMP    WIND        PRES    WAVE
                       AIR SEA DIR/SP/G            HT/PER
                 (UTC) (F)     (DEG/KT/KT) (MB)    (FT/S)
N MID LAKE BUOY  0550   56 58  170/  8/ 10 1021.7F   0
NORTHPORT PIER   0600   50     190/  3/  5 1021.3F
KEWAUNEE LAKESHO 0600   45     300/  3/  4 1020.6F
SHEBOYGAN LAKESH 0600   50 49  260/  3/  3 1022.3F
PORT WASHINGTON  0600   49     260/  3/  4 1022.7R
ATWATER BUOY     0600   58     110/  4/  6 1022.9R
MILWAUKEE LAKESH 0600   59     110/  6/  7   N/A
S MID LAKE BUOY  0550   61 62  120/ 14/ 16 1021.8F   2/ 5
KENOSHA   LAKESH 0600   61      90/  8/  9 1021.7S
$$

TC  - TEMPERATURE IN CELSIUS
VSB - VISIBILITY IN STATUTE MILES
WCI - WIND CHILL INDEX
HX  - HEAT INDEX




USA.gov is the U.S. government's official web portal to all federal, state and local government web resources and services.